Location: Regona
(45.2000°N, 9.8167°E)
Time: 12:38:27
(UTC+00:00)

NOSS 2-1 (D) - Pass Details

Date: 07 June 2020
Orbit: 449 x 1754 km, 63.3° (Epoch: 25 June)

Event Time Altitude Azimuth Distance (km) Brightness Sun altitude
Exits shadow 01:16:56 45° 212° (SSW) 622 3.1 -17.0°
Maximum altitude 01:17:53 85° 126° (SE) 459 2.8 -16.9°
Drops below altitude 10° 01:21:27 10° 39° (NE) 1,667 7.1 -16.6°
Sets 01:23:43 0° 39° (NE) 2,647 8.5 -16.4°
